sat.trackr.live / text

‹ back to catalog

STARLINK-35575

NORAD 66165 · 2025-240V

PAYLOAD ACTIVE UNKNOWN

§ Identity

Operator
Country
US
Launch date
2025-10-25
Launch site
AFWTR
Launch vehicle
Mass (kg)
RCS (m²)

Purposes: comms

External: N2YO · Heavens-Above · Gunter

§ Orbital elements

Epoch: 2026-05-25T01:54:30.189312Z

Period
93.85 min
Inclination
53.1579°
Eccentricity
0.0000910
Mean motion
15.34406691 rev/d
Perigee alt
462.1 km
Apogee alt
463.3 km
Semi-major
6,840.8 km
B*
4.4347e-4
RAAN
67.3010°
Arg perigee
90.3401°
Mean anomaly
269.7706°
Rev number
3,369

§ Raw data

STARLINK-355751 66165U 25240V   26145.07951608  .00014640  00000+0  44347-3 0  99902 66165  53.1579  67.3010 0000910  90.3401 269.7706 15.34406691 33697

JSON: /api/v1/satellites/66165 · /tle

For live sub-satellite position, see the globe view (requires WebGL).

§ Visibility from observer

Set your observer location to see the next 7 days of passes ≥ 10°. The values pass through the URL so the page stays shareable.

No JS? Fill the form by hand. The geolocation button needs JavaScript.